[[{"header":{"parameterUnit":"m.s-1","parameterCategory":1,"la1":30.2991,"la2":30.254,"lo1":-89.0895,"lo2":-89.0444,"dy":0.0017,"dx":0.0017,"nx":28,"ny":28,"refTime":"2023-07-24T09:00:00:Z","depth":0,"parameterNumber":2,"parameterNumberName":"U-component_of_WINDS"},"data":[0,0,0,0,0,0,0,0,0,0,0,0,0,0,0,0,0,0,0,0,0,0,0,0,0,0,0,0,0,0,0,0,0,0,0,0,0,0,0,0,0,0,0,0,0,0,0,0,0,0,0,0,0,0,0,0,0,0,0.7686,0.7687,0,0.7789,0.779,0.7791,0.7779,0.7777,0.7775,0.7774,0.7876,0.788,0.7885,0,0,0,0,0,0,0,0,0,0,0,0,0,0.7476,0.748,0.7686,0.7687,0.7688,0.7789,0.779,0.7792,0.7779,0.7777,0.7775,0.7773,0.7875,0.788,0.7885,0,0,0,0,0,0,0,0,0,0,0,0,0,0.7572,0.7481,0.7686,0.7694,0.7696,0.7788,0.779,0.7792,0.7779,0.7777,0.7774,0.7772,0.7873,0.7879,0.7886,0.7975,0,0,0.7905,0.7908,0,0,0,0,0,0,0,0,0.7567,0.758,0.7692,0.7694,0.7696,0.7768,0.7754,0.7853,0.778,0.7748,0.7774,0.7771,0.7842,0.7851,0.7876,0.798,0.7985,0.7906,0.791,0.7913,0.7914,0,0,0,0,0,0,0,0.756,0.7575,0.7726,0.7693,0.7696,0.7692,0.7703,0.7773,0.7807,0.775,0.775,0.7762,0.7843,0.787,0.7878,0.7986,0.7906,0.7912,0.7915,0.7918,0.8172,0.8175,0,0,0,0,0,0,0.7551,0.757,0.7723,0.773,0.7624,0.7698,0.771,0.7748,0.7807,0.7813,0.7764,0.7761,0.786,0.7871,0.7882,0.7993,0.7913,0.7919,0.7922,0.8169,0.8173,0.8176,0,0,0,0,0,0,0.7547,0.7565,0.7719,0.765,0.7669,0.7705,0.7746,0.7751,0.7778,0.7817,0.7823,0.7785,0.7858,0.7873,0.7953,0.7996,0.7922,0.7927,0.8166,0.817,0.8174,0.8214,0,0,0,0,0,0,0.7541,0.7564,0.7598,0.7651,0.7673,0.7789,0.7749,0.7755,0.7789,0.7786,0.7839,0.7845,0.7857,0.7944,0.7959,0.8004,0.7932,0.8162,0.8168,0.8173,0.8209,0.8219,0.8228,0,0,0,0,0,0.7534,0.7604,0.76,0.7619,0.7717,0.7792,0.7804,0.7818,0.7793,0.7828,0.7854,0.7843,0.7988,0.7952,0.797,0.8016,0.8159,0.8166,0.8172,0.8205,0.8217,0.8228,0,0,0,0,0,0,0.7554,0.7611,0.7607,0.7697,0.774,0.7789,0.7834,0.783,0.7881,0.7876,0.789,0.7902,0.7984,0.8008,0.7966,0.8107,0.807,0.8081,0.8089,0.8101,0.811,0.8104,0.7938,0,0,0,0,0,0.757,0.7627,0.7673,0.7747,0.7769,0.7798,0.7831,0.7839,0.7883,0.7901,0.7932,0.7975,0.8031,0.8067,0.812,0.8212,0.8224,0.8253,0.8263,0.827,0.8279,0.8332,0.8346,0.8197,0.8197,0.8197,0,0,0.7601,0.7639,0.7674,0.7753,0.7787,0.7845,0.7813,0.7876,0.792,0.791,0.7989,0.8013,0.8062,0.815,0.819,0.8172,0.8323,0.8278,0.8284,0.8289,0.8341,0.8355,0.8367,0.8202,0.8201,0.82,0,0,0.769,0.7723,0.7791,0.7826,0.7879,0.7898,0.7914,0.7965,0.7982,0.8062,0.8056,0.8108,0.8203,0.8239,0.8269,0.8374,0.8367,0.839,0.844,0.8492,0.8504,0.8514,0.8553,0.8567,0.8399,0.8399,0.8399,0,0.7722,0.7811,0.7825,0.789,0.7926,0.7921,0.799,0.8023,0.809,0.8114,0.8094,0.8215,0.8247,0.8344,0.837,0.8394,0.8414,0.8385,0.8501,0.8511,0.8522,0.8559,0.8574,0.8402,0.8402,0.8401,0.8401,0,0.785,0.7912,0.7959,0.8027,0.8067,0.8133,0.8158,0.8197,0.8201,0.8222,0.8304,0.8343,0.8406,0.8429,0.8432,0.8527,0.8515,0.8497,0.8461,0.8538,0.8574,0.8589,0.8406,0.8405,0.8404,0.8403,0,0,0.7953,0.803,0.8047,0.8079,0.8138,0.8186,0.8252,0.8314,0.8349,0.8395,0.8452,0.8533,0.8518,0.8553,0.8561,0.8606,0.8689,0.8583,0.8584,0.8603,0.8799,0.8813,0.8829,0.8684,0.8687,0.8689,0.8795,0,0.8049,0.8168,0.8184,0.829,0.8348,0.8345,0.8403,0.8446,0.8468,0.852,0.8543,0.8602,0.8577,0.8598,0.8643,0.8669,0.8729,0.8662,0.8738,0.8741,0.8728,0.8848,0.8863,0.8961,0.8809,0.8812,0.8813,0,0.8177,0.823,0.8341,0.8395,0.842,0.8472,0.8532,0.8581,0.863,0.8643,0.8683,0.8686,0.8755,0.8715,0.8811,0.8765,0.8797,0.8815,0.8819,0.8828,0.8783,0.8862,0.8992,0.9008,0.8835,0.8833,0.8832,0,0.8244,0.8343,0.8423,0.845,0.8513,0.8551,0.8579,0.8625,0.8662,0.8714,0.8739,0.8797,0.8829,0.8874,0.8893,0.8862,0.8989,0.895,0.9003,0.9002,0.9031,0.9029,0.917,0.9048,0.9048,0.9048,0.9047,0,0.835,0.8419,0.8455,0.8505,0.8582,0.86,0.8676,0.8702,0.8744,0.8799,0.8799,0.885,0.8871,0.8925,0.894,0.9019,0.9033,0.9046,0.9049,0.9047,0.9046,0.9069,0.9064,0.9052,0.9051,0.905,0.9049,0,0.8439,0.8466,0.8554,0.8608,0.8623,0.8678,0.8724,0.8772,0.8794,0.8864,0.8881,0.8915,0.898,0.9003,0.9081,0.9091,0.9183,0.9179,0.9167,0.9169,0.9221,0.9217,0.9384,0.9408,0.9268,0.927,0.9271,0,0.8506,0.856,0.8621,0.8658,0.8688,0.8748,0.8787,0.8807,0.8847,0.8908,0.8949,0.9014,0.9067,0.917,0.9202,0.9262,0.9261,0.9316,0.927,0.9267,0.9265,0.9263,0.9269,0.9325,0.9326,0.9327,0.9328,0,0.8623,0.8634,0.8691,0.8754,0.8801,0.885,0.8898,0.8928,0.8955,0.9,0.9068,0.9109,0.919,0.9255,0.9317,0.9345,0.9342,0.9342,0.9358,0.9358,0.9349,0.9357,0.9193,0.9339,0.9338,0.9337,0.9336,0.9336,0.8705,0.8753,0.8805,0.8869,0.8907,0.8953,0.9002,0.9031,0.9088,0.9157,0.9164,0.9237,0.9286,0.9369,0.94,0.9458,0.9443,0.9465,0.9471,0.9477,0.9482,0.9339,0.9469,0.9468,0.9468,0.9468,0.9468,0,0.8824,0.8857,0.8916,0.8984,0.9035,0.9029,0.9082,0.9125,0.9189,0.9236,0.9289,0.9367,0.943,0.9468,0.9532,0.957,0.9571,0.9587,0.9585,0.9592,0.9491,0.9472,0.9586,0.9586,0.9586,0.9585,0.9585,0.9585,0.8891,0.8975,0.8992,0.9094,0.9127,0.92,0.9231,0.9274,0.9311,0.9399,0.9453,0.9477,0.9521,0.9588,0.9646,0.9655,0.968,0.9698,0.9706,0.9611,0.9599,0.9587,0.957,0.9702,0.9702,0.9803,0.9804,0.9804]},{"header":{"parameterUnit":"m.s-1","parameterCategory":1,"la1":30.2991,"la2":30.254,"lo1":-89.0895,"lo2":-89.0444,"dy":0.0017,"dx":0.0017,"nx":28,"ny":28,"refTime":"2023-07-24T09:00:00:Z","depth":0,"parameterNumber":3,"parameterNumberName":"V-component_of_WINDS"},"data":[0,0,0,0,0,0,0,0,0,0,0,0,0,0,0,0,0,0,0,0,0,0,0,0,0,0,0,0,0,0,0,0,0,0,0,0,0,0,0,0,0,0,0,0,0,0,0,0,0,0,0,0,0,0,0,0,0,0,-2.0825,-2.0826,0,-2.0915,-2.0916,-2.0917,-2.0943,-2.0942,-2.0942,-2.0941,-2.103,-2.1033,-2.1036,0,0,0,0,0,0,0,0,0,0,0,0,0,-2.0671,-2.0673,-2.0825,-2.0826,-2.0827,-2.0915,-2.0916,-2.0918,-2.0943,-2.0942,-2.0942,-2.0941,-2.1029,-2.1033,-2.1036,0,0,0,0,0,0,0,0,0,0,0,0,0,-2.0747,-2.0674,-2.0825,-2.0851,-2.0854,-2.0915,-2.0916,-2.0918,-2.0943,-2.0942,-2.0942,-2.0941,-2.1028,-2.1032,-2.1037,-2.1077,0,0,-2.105,-2.1051,0,0,0,0,0,0,0,0,-2.0742,-2.0752,-2.0846,-2.0849,-2.0853,-2.0917,-2.0895,-2.0971,-2.0943,-2.0909,-2.0941,-2.0941,-2.0993,-2.1,-2.1019,-2.1082,-2.1085,-2.105,-2.1053,-2.1054,-2.1056,0,0,0,0,0,0,0,-2.0737,-2.0749,-2.0861,-2.0847,-2.0851,-2.0856,-2.0866,-2.0909,-2.0954,-2.0912,-2.0914,-2.0925,-2.0995,-2.1014,-2.1021,-2.1087,-2.105,-2.1054,-2.1056,-2.1058,-2.1186,-2.1187,0,0,0,0,0,0,-2.0728,-2.0744,-2.0858,-2.0863,-2.0795,-2.086,-2.0871,-2.0897,-2.0954,-2.0962,-2.0925,-2.0925,-2.1008,-2.1016,-2.1024,-2.1075,-2.1054,-2.1058,-2.1061,-2.1185,-2.1186,-2.1187,0,0,0,0,0,0,-2.0725,-2.0738,-2.0854,-2.0804,-2.082,-2.0863,-2.0892,-2.0899,-2.0919,-2.0964,-2.0971,-2.0937,-2.1007,-2.1018,-2.1064,-2.1078,-2.106,-2.1064,-2.1184,-2.1185,-2.1186,-2.1176,0,0,0,0,0,0,-2.072,-2.0737,-2.0754,-2.0805,-2.0822,-2.0894,-2.0893,-2.0902,-2.0927,-2.0928,-2.0977,-2.0984,-2.1008,-2.1057,-2.1068,-2.1083,-2.1067,-2.1183,-2.1184,-2.1186,-2.1175,-2.1177,-2.1178,0,0,0,0,0,-2.0715,-2.0747,-2.0754,-2.0768,-2.0845,-2.0895,-2.0904,-2.0931,-2.0928,-2.0944,-2.0973,-2.0983,-2.1075,-2.1062,-2.1074,-2.1091,-2.1182,-2.1184,-2.1186,-2.1175,-2.1177,-2.1178,0,0,0,0,0,0,-2.0695,-2.0754,-2.0763,-2.0813,-2.0849,-2.0899,-2.0921,-2.0933,-2.0969,-2.0969,-2.1,-2.1011,-2.1054,-2.1077,-2.1062,-2.1132,-2.1128,-2.1133,-2.1116,-2.1118,-2.1119,-2.1113,-2.1071,0,0,0,0,0,-2.0697,-2.0734,-2.0783,-2.0822,-2.084,-2.0877,-2.09,-2.0917,-2.0955,-2.097,-2.1002,-2.1037,-2.1074,-2.1097,-2.1133,-2.1179,-2.1189,-2.1196,-2.1198,-2.1199,-2.1202,-2.1226,-2.123,-2.1193,-2.1193,-2.1193,0,0,-2.0701,-2.0737,-2.0759,-2.0819,-2.0849,-2.0885,-2.089,-2.0928,-2.0954,-2.0976,-2.1021,-2.1045,-2.1086,-2.1131,-2.1153,-2.1152,-2.1214,-2.1201,-2.1202,-2.1204,-2.1228,-2.1232,-2.1235,-2.1194,-2.1194,-2.1194,0,0,-2.0726,-2.0758,-2.0794,-2.0824,-2.0869,-2.0893,-2.0902,-2.095,-2.0967,-2.1013,-2.1029,-2.106,-2.1123,-2.1152,-2.1174,-2.1208,-2.1218,-2.1219,-2.1226,-2.125,-2.1252,-2.1255,-2.1266,-2.127,-2.1222,-2.1222,-2.1222,0,-2.0725,-2.0781,-2.081,-2.0848,-2.0873,-2.0895,-2.093,-2.0957,-2.1011,-2.1027,-2.1026,-2.1104,-2.1134,-2.1185,-2.1193,-2.1211,-2.1221,-2.1214,-2.125,-2.1253,-2.1256,-2.1267,-2.1271,-2.1222,-2.1222,-2.1222,-2.1222,0,-2.0777,-2.0815,-2.0839,-2.0891,-2.0919,-2.0955,-2.0988,-2.1013,-2.1028,-2.1052,-2.1097,-2.1133,-2.1176,-2.119,-2.1204,-2.1243,-2.1241,-2.1244,-2.1241,-2.1259,-2.1269,-2.1274,-2.1222,-2.1222,-2.1222,-2.1222,0,0,-2.0793,-2.0861,-2.0869,-2.0892,-2.0943,-2.0973,-2.1009,-2.1052,-2.1072,-2.1108,-2.1138,-2.119,-2.1194,-2.1219,-2.1237,-2.1257,-2.128,-2.1258,-2.1259,-2.126,-2.1323,-2.132,-2.1324,-2.1287,-2.1288,-2.1289,-2.1319,0,-2.0824,-2.0892,-2.0918,-2.0972,-2.1007,-2.1027,-2.1058,-2.1092,-2.1115,-2.1147,-2.1172,-2.1208,-2.121,-2.1225,-2.1246,-2.1273,-2.1293,-2.1271,-2.1314,-2.1315,-2.1303,-2.133,-2.1327,-2.1354,-2.1324,-2.1325,-2.1325,0,-2.087,-2.0907,-2.0965,-2.101,-2.1026,-2.1053,-2.1094,-2.1125,-2.1163,-2.1178,-2.1206,-2.1222,-2.1259,-2.1253,-2.1303,-2.1288,-2.1307,-2.1322,-2.1324,-2.1328,-2.1321,-2.1335,-2.1364,-2.1368,-2.1332,-2.1332,-2.1331,0,-2.0875,-2.0939,-2.0982,-2.1001,-2.1055,-2.1074,-2.1097,-2.1135,-2.1158,-2.1193,-2.1209,-2.1247,-2.1268,-2.1297,-2.1323,-2.1316,-2.137,-2.1366,-2.1382,-2.1381,-2.1393,-2.1391,-2.1424,-2.1406,-2.1405,-2.1405,-2.1405,0,-2.0906,-2.094,-2.0985,-2.1011,-2.1049,-2.1078,-2.1115,-2.1139,-2.1171,-2.1201,-2.1221,-2.1248,-2.128,-2.1311,-2.1331,-2.1369,-2.1378,-2.139,-2.1395,-2.1389,-2.1387,-2.1401,-2.14,-2.1406,-2.1406,-2.1406,-2.1406,0,-2.0919,-2.095,-2.0997,-2.1044,-2.1057,-2.1083,-2.1123,-2.1148,-2.1171,-2.1209,-2.1219,-2.1255,-2.1293,-2.1321,-2.1369,-2.1383,-2.1422,-2.1428,-2.141,-2.1412,-2.1426,-2.1424,-2.1469,-2.1475,-2.1453,-2.1453,-2.1453,0,-2.0937,-2.0963,-2.1013,-2.1035,-2.1059,-2.1094,-2.1118,-2.1147,-2.1172,-2.1216,-2.1235,-2.1274,-2.1306,-2.1364,-2.1394,-2.1431,-2.1437,-2.145,-2.1442,-2.1434,-2.1436,-2.1434,-2.1436,-2.1451,-2.1451,-2.1451,-2.1451,0,-2.0965,-2.0979,-2.1014,-2.1054,-2.1083,-2.1116,-2.1149,-2.1165,-2.12,-2.1226,-2.1265,-2.129,-2.1339,-2.1376,-2.1416,-2.1438,-2.1449,-2.1453,-2.1458,-2.1452,-2.144,-2.1445,-2.1412,-2.1452,-2.1452,-2.1452,-2.1452,-2.1452,-2.098,-2.1004,-2.1043,-2.1081,-2.1109,-2.1139,-2.1165,-2.1192,-2.1225,-2.1268,-2.1283,-2.1322,-2.1357,-2.1411,-2.1434,-2.1464,-2.1464,-2.1472,-2.1474,-2.1475,-2.1474,-2.1435,-2.1471,-2.1471,-2.1471,-2.1471,-2.1471,0,-2.1008,-2.1034,-2.1069,-2.1115,-2.1144,-2.1154,-2.119,-2.1214,-2.1249,-2.1281,-2.1313,-2.1357,-2.1393,-2.1425,-2.1462,-2.148,-2.1486,-2.1489,-2.1487,-2.1492,-2.1472,-2.1464,-2.1483,-2.1483,-2.1483,-2.1483,-2.1483,-2.1483,-2.1027,-2.1068,-2.1086,-2.1141,-2.1166,-2.1206,-2.1226,-2.1253,-2.1279,-2.1327,-2.1358,-2.1379,-2.1411,-2.145,-2.1483,-2.1491,-2.1504,-2.1505,-2.1514,-2.1495,-2.1494,-2.1492,-2.1484,-2.1507,-2.1507,-2.1531,-2.1531,-2.1532]}]]